Regional Weather Roundup
Issued by NWS Albany, NY

Home | Current Version | Previous Version | Text Only | Print | Product List | Glossary On
Versions: 1 2 3 4 5 6 7 8 9 10 11 12 13 14 15 16 17 18 19 20 21 22 23 24 25 26 27 28 29 30 31 32 33 34 35 36 37 38 39 40 41 42 43 44 45 46 47 48 49 50
000
ASUS41 KALY 251010
RWRALY

NEW YORK STATE HOURLY WEATHER ROUNDUP
NATIONAL WEATHER SERVICE ALBANY NY
500 AM EST TUE NOV 25 2014

NOTE: "FAIR" INDICATES FEW OR NO CLOUDS BELOW 12,000 FEET WITH NO
SIGNIFICANT WEATHER AND/OR NO OBSTRUCTIONS TO VISIBILITY.

NYZ032-033-038>043-046>054-057>066-NYZ062>081-251100-
EAST


CITY           SKY/WX    TMP DP  RH WIND       PRES   REMARKS
ALBANY         CLOUDY    51  40  65 NW8       29.79R
GLENS FALLS    MOCLDY    53  36  52 W7        29.76R
POUGHKEEPSIE   CLOUDY    61  40  45 W7G18     29.79R
NEWBURGH       PTCLDY    57  45  62 W12G21    29.81R
MONTGOMERY     CLOUDY    59  33  37 W13G28    29.80R
WHITE PLAINS   CLOUDY    61  53  75 VRB3      29.83R
ISLIP          CLOUDY    57  56  96 SW8       29.83R
NEW YORK CITY  CLOUDY    63  51  65 W8        29.83R
CENTRAL PARK   CLOUDY    64  50  60 VRB5      29.86R
$$

NYZ005>009-017-018-044>046-055-056-251100-
CENTRAL


CITY           SKY/WX    TMP DP  RH WIND       PRES   REMARKS
FULTON         PTCLDY    42  29  59 S6        29.79R
SYRACUSE       PTCLDY    43  32  65 S7        29.80R
ROME           PTCLDY    34  33  96 SE5       29.83R WCI  30
ELMIRA         PTCLDY    45  28  51 W14       29.84R
BINGHAMTON     PTCLDY    45  27  49 W13       29.82R
MONTICELLO     CLOUDY    52  30  43 W7        29.85R
$$

NYZ026>034-041>043-251100-
NORTH


CITY           SKY/WX    TMP DP  RH WIND       PRES   REMARKS
WATERTOWN      CLOUDY    46  32  58 SW10G21   29.77R
FORT DRUM      NOT AVBL
MASSENA        CLEAR     43  30  60 SW24G35   29.71R
SARANAC LAKE   PTCLDY    38  31  76 SW14G24   29.69R WCI  30
PLATTSBURGH    PTCLDY    47  33  58 VRB7      29.72R
$$

NYZ001>004-010>016-019>021-251100-
WEST


CITY           SKY/WX    TMP DP  RH WIND       PRES   REMARKS
NIAGARA FALLS  CLOUDY    40  30  67 SW29G36   29.78R WCI  29
BUFFALO        CLOUDY    41  30  65 SW28G41   29.78R
DUNKIRK        CLOUDY    40  27  59 SW17G25   29.83R WCI  31
JAMESTOWN      MOCLDY    34  23  64 SW10G18   29.83R WCI  26
WELLSVILLE     CLEAR     36  22  56 SW21G30   29.82R WCI  25
ROCHESTER      CLOUDY    44  27  51 W25G39    29.79R
PENN YAN       PTCLDY    43  28  55 SW15G26   29.80R
$$

             KEY
       WCI = WIND CHILL INDEX
       VSB = VISIBILITY
       HX  = HEAT INDEX
$$



USA.gov is the U.S. government's official web portal to all federal, state and local government web resources and services.